TimeEDT,TemperatureF,Dew PointF,Humidity,Sea Level PressureIn,VisibilityMPH,Wind Direction,Wind SpeedMPH,Gust SpeedMPH,PrecipitationIn,Events,Conditions,WindDirDegrees,DateUTC
12:15 AM,41.5,30.4,65,30.13,7.0,NE,3.5,-,N/A,,Scattered Clouds,50,2013-05-13 04:15:00
12:35 AM,41.0,30.4,66,30.13,7.0,East,3.5,-,N/A,,Scattered Clouds,80,2013-05-13 04:35:00
12:55 AM,40.5,30.2,67,30.13,10.0,Calm,Calm,-,N/A,,Scattered Clouds,0,2013-05-13 04:55:00
1:15 AM,38.8,31.1,74,30.13,5.0,SE,3.5,-,N/A,,Unknown,140,2013-05-13 05:15:00
1:35 AM,38.7,31.8,76,30.13,10.0,Calm,Calm,-,N/A,,Unknown,0,2013-05-13 05:35:00
1:55 AM,39.2,32.2,76,30.12,10.0,Calm,Calm,-,N/A,,Overcast,0,2013-05-13 05:55:00
2:15 AM,39.2,32.4,76,30.12,10.0,Calm,Calm,-,N/A,,Overcast,0,2013-05-13 06:15:00
2:35 AM,39.7,32.0,74,30.12,10.0,Calm,Calm,-,N/A,,Overcast,0,2013-05-13 06:35:00
2:55 AM,40.1,32.0,73,30.11,10.0,Calm,Calm,-,N/A,,Overcast,0,2013-05-13 06:55:00
3:15 AM,40.1,32.2,73,30.11,10.0,Calm,Calm,-,N/A,,Overcast,0,2013-05-13 07:15:00
3:35 AM,40.1,32.5,74,30.11,10.0,South,3.5,-,N/A,,Overcast,190,2013-05-13 07:35:00
3:55 AM,39.7,32.7,76,30.11,7.0,South,4.6,-,N/A,,Overcast,190,2013-05-13 07:55:00
4:15 AM,40.1,32.0,73,30.11,7.0,SSW,3.5,-,N/A,,Overcast,200,2013-05-13 08:15:00
4:35 AM,39.7,32.0,74,30.11,5.0,SSW,3.5,-,N/A,,Haze,200,2013-05-13 08:35:00
4:55 AM,39.6,32.0,74,30.11,5.0,SSW,3.5,-,N/A,,Haze,200,2013-05-13 08:55:00
5:15 AM,38.1,32.0,79,30.11,10.0,SSW,5.8,-,N/A,,Scattered Clouds,200,2013-05-13 09:15:00
5:35 AM,37.8,31.5,78,30.11,7.0,SSW,6.9,-,N/A,,Clear,210,2013-05-13 09:35:00
5:55 AM,37.0,31.5,80,30.11,10.0,North,3.5,-,N/A,,Clear,360,2013-05-13 09:55:00
6:15 AM,37.4,31.3,79,30.12,5.0,NE,6.9,-,N/A,,Haze,40,2013-05-13 10:15:00
6:35 AM,37.4,30.7,77,30.13,5.0,ENE,4.6,-,N/A,,Haze,70,2013-05-13 10:35:00
6:55 AM,36.1,30.7,81,30.13,10.0,ENE,4.6,-,N/A,,Clear,70,2013-05-13 10:55:00
7:15 AM,36.1,31.3,83,30.14,7.0,ENE,4.6,-,N/A,,Scattered Clouds,60,2013-05-13 11:15:00
7:35 AM,37.8,32.0,80,30.14,5.0,Calm,Calm,-,N/A,,Haze,0,2013-05-13 11:35:00
7:55 AM,39.4,32.0,75,30.15,10.0,Calm,Calm,-,N/A,,Clear,0,2013-05-13 11:55:00
8:15 AM,41.4,32.2,70,30.15,10.0,East,3.5,-,N/A,,Clear,100,2013-05-13 12:15:00
8:35 AM,43.0,32.2,66,30.16,10.0,Calm,Calm,-,N/A,,Clear,0,2013-05-13 12:35:00
8:55 AM,44.4,31.5,60,30.16,10.0,Calm,Calm,-,N/A,,Clear,0,2013-05-13 12:55:00
9:15 AM,45.3,30.9,57,30.17,10.0,Calm,Calm,-,N/A,,Clear,0,2013-05-13 13:15:00
9:35 AM,46.4,31.3,56,30.18,10.0,Calm,Calm,-,N/A,,Clear,0,2013-05-13 13:35:00
9:55 AM,47.1,30.9,53,30.18,7.0,Calm,Calm,-,N/A,,Clear,0,2013-05-13 13:55:00
10:15 AM,47.8,30.9,52,30.18,7.0,WNW,4.6,-,N/A,,Clear,290,2013-05-13 14:15:00
10:35 AM,48.7,30.2,49,30.19,10.0,WNW,3.5,-,N/A,,Clear,290,2013-05-13 14:35:00
10:55 AM,49.8,30.0,47,30.19,10.0,NW,5.8,-,N/A,,Clear,310,2013-05-13 14:55:00
11:15 AM,51.1,28.2,41,30.19,10.0,NW,5.8,-,N/A,,Clear,320,2013-05-13 15:15:00
11:35 AM,52.2,26.6,37,30.19,10.0,NW,5.8,-,N/A,,Clear,320,2013-05-13 15:35:00
11:55 AM,53.6,22.5,30,30.19,10.0,NNW,6.9,-,N/A,,Clear,330,2013-05-13 15:55:00
12:15 PM,54.1,21.0,27,30.19,10.0,NW,12.7,20.7,N/A,,Scattered Clouds,310,2013-05-13 16:15:00
12:35 PM,54.7,22.3,28,30.19,10.0,NW,11.5,20.7,N/A,,Clear,320,2013-05-13 16:35:00
12:55 PM,55.0,21.2,27,30.18,10.0,West,13.8,19.6,N/A,,Scattered Clouds,280,2013-05-13 16:55:00
1:15 PM,55.8,20.7,26,30.18,10.0,NW,10.4,-,N/A,,Clear,320,2013-05-13 17:15:00
1:35 PM,56.1,21.9,27,30.18,10.0,NW,11.5,18.4,N/A,,Scattered Clouds,310,2013-05-13 17:35:00
1:55 PM,56.1,20.7,25,30.17,10.0,West,10.4,16.1,N/A,,Scattered Clouds,280,2013-05-13 17:55:00
2:15 PM,56.8,20.7,25,30.17,10.0,NNW,9.2,19.6,N/A,,Scattered Clouds,330,2013-05-13 18:15:00
2:35 PM,57.4,21.0,24,30.17,10.0,NW,6.9,23.0,N/A,,Scattered Clouds,310,2013-05-13 18:35:00
2:55 PM,57.9,21.2,24,30.16,10.0,NW,13.8,19.6,N/A,,Clear,310,2013-05-13 18:55:00
3:15 PM,58.3,20.5,23,30.16,10.0,NNW,12.7,21.9,N/A,,Clear,330,2013-05-13 19:15:00
3:35 PM,58.3,20.7,23,30.16,10.0,NW,6.9,-,N/A,,Clear,320,2013-05-13 19:35:00
4:35 PM,59.7,20.8,22,30.14,10.0,NW,10.4,18.4,N/A,,Clear,320,2013-05-13 20:35:00
4:55 PM,60.1,20.8,22,30.13,10.0,NW,8.1,-,N/A,,Clear,320,2013-05-13 20:55:00
5:15 PM,60.1,18.7,20,30.12,10.0,NW,15.0,20.7,N/A,,Clear,320,2013-05-13 21:15:00
5:35 PM,60.6,19.8,21,30.12,10.0,NW,10.4,18.4,N/A,,Clear,310,2013-05-13 21:35:00
5:55 PM,60.8,20.8,21,30.12,10.0,WNW,13.8,17.3,N/A,,Clear,290,2013-05-13 21:55:00
6:15 PM,61.2,20.3,21,30.11,10.0,NW,13.8,18.4,N/A,,Clear,310,2013-05-13 22:15:00
6:35 PM,61.0,20.7,21,30.11,10.0,NNW,8.1,19.6,N/A,,Clear,330,2013-05-13 22:35:00
6:55 PM,60.8,19.6,20,30.11,10.0,NW,6.9,-,N/A,,Clear,310,2013-05-13 22:55:00
7:35 PM,60.1,20.8,22,30.11,10.0,West,6.9,-,N/A,,Clear,280,2013-05-13 23:35:00
8:15 PM,59.2,21.9,24,30.11,7.0,North,3.5,-,N/A,,Clear,350,2013-05-14 00:15:00
8:35 PM,58.5,21.7,24,30.11,7.0,Calm,Calm,-,N/A,,Clear,0,2013-05-14 00:35:00
8:55 PM,57.0,25.5,30,30.12,10.0,Calm,Calm,-,N/A,,Clear,0,2013-05-14 00:55:00
9:15 PM,54.7,28.6,37,30.12,10.0,Calm,Calm,-,N/A,,Clear,0,2013-05-14 01:15:00
9:35 PM,51.3,32.0,48,30.12,10.0,ENE,3.5,-,N/A,,Clear,70,2013-05-14 01:35:00
9:55 PM,49.1,32.7,53,30.12,10.0,Calm,Calm,-,N/A,,Clear,0,2013-05-14 01:55:00
10:15 PM,48.4,32.4,54,30.12,7.0,ESE,4.6,-,N/A,,Clear,110,2013-05-14 02:15:00
10:35 PM,46.9,33.4,59,30.13,10.0,SE,3.5,-,N/A,,Clear,130,2013-05-14 02:35:00
10:55 PM,48.0,32.4,55,30.13,10.0,ESE,5.8,-,N/A,,Clear,120,2013-05-14 02:55:00
11:15 PM,48.4,32.5,54,30.12,10.0,SE,5.8,-,N/A,,Clear,130,2013-05-14 03:15:00
11:35 PM,49.1,32.0,52,30.12,7.0,SE,6.9,-,N/A,,Clear,130,2013-05-14 03:35:00
11:55 PM,49.1,31.6,51,30.11,10.0,ESE,5.8,-,N/A,,Mostly Cloudy,120,2013-05-14 03:55:00